Tracking 28790 objects as of 19-Apr-2024
HD Live streaming from Space Station
objects crossing your sky now

STARLINK-5366

Track STARLINK-5366 now!
10-day predictions
STARLINK-5366 is classified as:


NORAD ID: 55499
Int'l Code: 2023-015BC
Perigee: 565.3 km
Apogee: 567.2 km
Inclination: 43.0 °
Period: 95.8 minutes
Semi major axis: 6937 km
RCS: Unknown
Launch date: February 2, 2023
Source: United States (US)
Launch site: AIR FORCE EASTERN TEST RANGE (AFETR)
Your satellite tracking list
Your tracking list is empty




NASA's NSSDC Master Catalog

Two Line Element Set (TLE):
1 55499U 23015BC  24109.54084110  .00017299  00000-0  12929-2 0  9995
2 55499  43.0023 128.5381 0001309 276.9624  83.1069 15.02525221 67547
Source of the keplerian elements: AFSPC